SERVIS 2 DEB, 43394

Orbit data source: Space-Track

SERVIS 2 DEB, 43394 is space debris in SSO originally from a launch on Wed, 02 Jun 2010 UTC launched from the Plesetsk Missile And Space Complex (PKMTR). Debris objects in space refer to the collection of defunct objects orbiting the Earth. Examples of debris include non-operational satellites, rocket bodies, and fragments generated from explosions, collisions, or faulty payload assembly.

Loading next visibility...
Identifier
43394, 2010-023D
Orbit
SSO
Country
Flag of CISCIS
Related business
Manufacturer
MELCO
Mission
Spacecraft
Bus & Motor
Unknown
Mass
Unknown
Launch date (UTC)
2010-06-02 (16 years ago)
Launch vehicle
Unknown
Launch site
Plesetsk Missile And Space Complex (PKMTR)
Object type
Payload
Rocket body
Debris
Shape & HBR
Unknown shape, 0.1 m
Radar Cross Section
Small (<0.1 m²)

Expand to show TLE details & history
Last TLE update: 1 week ago

TLE from 1 week ago
0 SERVIS 2 DEB
1 43394U 10023D   26027.30701556  .00010204  00000-0  13939-1 0  9996
2 43394 100.5008  47.8445 0016905 273.8577  86.0626 13.58990148 78541
Epoch: 2026-01-27T07:22Z
TLE epoch observation values (Epoch: 2026-01-27T07:22:06.144Z)
Latitude
-0.00008°
Longitude
170.72862°
Altitude
1,041.293 km
Speed
7.332 km/s
True Right ascension
03h 11m 22s
True Declination
0° 00' 00"
Sunlit
Object was in daylight at epoch
Visualization orbit readout
Latitude
Unknown
Longitude
Unknown
Altitude
Unknown
Speed
Unknown
Apparent Right ascension
Unknown
Apparent Declination
Unknown
Sunlit
N/A
Visualization observer readout
Local Sidereal Time
00:14:22
Azimuth
Unknown
Elevation
Unknown
Doppler factor
Unknown
Orbital elements
Apogee altitude
1,049.231 km
Perigee altitude
1,024.162 km
Semi-major axis
7,414.834 km
Eccentricity
0.00169
Inclination
100.5008°
RAAN
47.8445°
Arg. of periapsis
273.8577°
True anomaly
86.25589°
Mean anomaly
86.0626°
Eccentric anomaly
86.15924°
Mean motion
3.39931 °/min
Orbital period
105.9 mins
BSTAR
0.013939
Loading maneuver chart data...
Computing Atmospheric mass density...
Loading historical data...
Loading historical data...
Loading historical data...
Loading historical data...
Loading historical data...
Loading historical data...
Loading historical data...
Other satellites on launch #23 in the year 2010 (2010-06-02 UTC)

Documentation

Showing up to 5 results
|